Météo par heure à Julkow

Ce jour, 17 Juin, Jeudi

Heure Température Précipitation Vent Pression Humidité
00:00 +16°C° 0 mm 3 m/s 749 mmHg 87%
01:00 +16°C° 0 mm 3 m/s 749 mmHg 91%
02:00 +16°C° 0 mm 3 m/s 749 mmHg 91%
03:00 +16°C° 0 mm 2 m/s 749 mmHg 92%
04:00 +15°C° 0 mm 2 m/s 749 mmHg 92%
05:00 +17°C° 0 mm 3 m/s 749 mmHg 86%
06:00 +19°C° 0 mm 3 m/s 749 mmHg 80%
07:00 +21°C° 0 mm 3 m/s 750 mmHg 74%
08:00 +22°C° 0 mm 3 m/s 750 mmHg 69%
09:00 +23°C° 0 mm 4 m/s 750 mmHg 64%
10:00 +25°C° 0 mm 4 m/s 750 mmHg 60%
11:00 +26°C° 0 mm 4 m/s 750 mmHg 56%
12:00 +26°C° 0 mm 3 m/s 750 mmHg 53%
13:00 +27°C° 0 mm 3 m/s 750 mmHg 49%
14:00 +27°C° 0 mm 3 m/s 750 mmHg 49%
15:00 +27°C° 0 mm 4 m/s 750 mmHg 48%
16:00 +27°C° 0 mm 4 m/s 750 mmHg 47%
17:00 +25°C° 0 mm 4 m/s 749 mmHg 55%
18:00 +24°C° 0 mm 3 m/s 749 mmHg 62%
19:00 +21°C° 0 mm 3 m/s 749 mmHg 70%
20:00 +20°C° 0 mm 3 m/s 750 mmHg 70%
21:00 +19°C° 0 mm 3 m/s 750 mmHg 71%
22:00 +17°C° 0 mm 3 m/s 750 mmHg 72%
23:00 +17°C° 0 mm 3 m/s 750 mmHg 74%

Demain, 18 Juin, Vendredi

Heure Température Précipitation Vent Pression Humidité
00:00 +16°C° 0 mm 3 m/s 750 mmHg 76%
01:00 +16°C° 0 mm 3 m/s 750 mmHg 78%
02:00 +16°C° 0 mm 3 m/s 750 mmHg 81%
03:00 +16°C° 0 mm 3 m/s 750 mmHg 83%
04:00 +16°C° 0 mm 3 m/s 750 mmHg 85%
05:00 +18°C° 0 mm 3 m/s 750 mmHg 81%
06:00 +20°C° 0 mm 4 m/s 750 mmHg 76%
07:00 +21°C° 0 mm 5 m/s 750 mmHg 72%
08:00 +23°C° 0 mm 5 m/s 750 mmHg 67%
09:00 +26°C° 0 mm 6 m/s 749 mmHg 61%
10:00 +27°C° 0 mm 6 m/s 749 mmHg 56%
11:00 +28°C° 0 mm 6 m/s 749 mmHg 53%
12:00 +28°C° 0 mm 6 m/s 749 mmHg 51%
13:00 +29°C° 0 mm 5 m/s 749 mmHg 49%
14:00 +29°C° 0 mm 5 m/s 749 mmHg 50%
15:00 +29°C° 0 mm 5 m/s 748 mmHg 52%
16:00 +29°C° 0 mm 5 m/s 748 mmHg 54%
17:00 +27°C° 0 mm 4 m/s 748 mmHg 60%
18:00 +26°C° 0 mm 4 m/s 748 mmHg 66%
19:00 +23°C° 0 mm 4 m/s 748 mmHg 73%
20:00 +22°C° 0 mm 4 m/s 748 mmHg 77%
21:00 +21°C° 0 mm 4 m/s 748 mmHg 80%
22:00 +20°C° 0 mm 4 m/s 748 mmHg 84%
23:00 +19°C° 0 mm 3 m/s 748 mmHg 86%

Après-demain, 19 Juin, Samedi

Heure Température Précipitation Vent Pression Humidité
00:00 +19°C° 0 mm 3 m/s 748 mmHg 89%
01:00 +18°C° 0 mm 3 m/s 748 mmHg 91%
02:00 +18°C° 0 mm 3 m/s 748 mmHg 92%
03:00 +17°C° 0 mm 3 m/s 748 mmHg 93%
04:00 +17°C° 0 mm 3 m/s 748 mmHg 94%
05:00 +19°C° 0 mm 4 m/s 748 mmHg 88%
06:00 +21°C° 0 mm 4 m/s 748 mmHg 83%
07:00 +23°C° 0 mm 4 m/s 748 mmHg 77%
08:00 +25°C° 0 mm 5 m/s 748 mmHg 71%
09:00 +26°C° 0 mm 5 m/s 748 mmHg 65%
10:00 +28°C° 0 mm 5 m/s 748 mmHg 59%
11:00 +29°C° 0 mm 5 m/s 748 mmHg 56%
12:00 +29°C° 0 mm 5 m/s 748 mmHg 52%
13:00 +30°C° 0 mm 5 m/s 747 mmHg 48%
14:00 +30°C° 0 mm 5 m/s 747 mmHg 49%
15:00 +30°C° 0 mm 4 m/s 747 mmHg 50%
16:00 +30°C° 0 mm 4 m/s 747 mmHg 51%
17:00 +29°C° 0 mm 4 m/s 747 mmHg 58%
18:00 +27°C° 0 mm 4 m/s 747 mmHg 66%
19:00 +26°C° 0 mm 4 m/s 746 mmHg 73%
20:00 +23°C° 0 mm 4 m/s 747 mmHg 77%
21:00 +22°C° 0 mm 4 m/s 747 mmHg 80%
22:00 +21°C° 0 mm 3 m/s 747 mmHg 84%
23:00 +20°C° 0 mm 3 m/s 747 mmHg 86%

20 Juin, Dimanche

Heure Température Précipitation Vent Pression Humidité
00:00 +20°C° 0 mm 3 m/s 747 mmHg 89%
01:00 +19°C° 0 mm 2 m/s 747 mmHg 92%
02:00 +19°C° 0 mm 3 m/s 747 mmHg 92%
03:00 +18°C° 0 mm 3 m/s 747 mmHg 92%
04:00 +18°C° 0 mm 3 m/s 746 mmHg 93%
05:00 +19°C° 0 mm 3 m/s 746 mmHg 87%
06:00 +21°C° 0 mm 4 m/s 746 mmHg 80%
07:00 +22°C° 0 mm 5 m/s 746 mmHg 74%
08:00 +25°C° 0 mm 5 m/s 746 mmHg 69%
09:00 +26°C° 0 mm 5 m/s 746 mmHg 64%
10:00 +27°C° 0 mm 5 m/s 746 mmHg 59%
11:00 +28°C° 0 mm 5 m/s 746 mmHg 56%
12:00 +29°C° 0 mm 5 m/s 745 mmHg 53%
13:00 +29°C° 0 mm 5 m/s 745 mmHg 51%
14:00 +29°C° 0 mm 5 m/s 745 mmHg 51%
15:00 +29°C° 0 mm 5 m/s 744 mmHg 51%
16:00 +29°C° 0 mm 5 m/s 744 mmHg 51%
17:00 +28°C° 0 mm 4 m/s 744 mmHg 57%
18:00 +27°C° 0 mm 4 m/s 743 mmHg 64%
19:00 +26°C° 0 mm 4 m/s 743 mmHg 70%
20:00 +25°C° 0 mm 4 m/s 743 mmHg 73%
21:00 +23°C° 0 mm 4 m/s 743 mmHg 76%
22:00 +22°C° 0 mm 4 m/s 743 mmHg 78%
23:00 +21°C° 0 mm 4 m/s 743 mmHg 83%

21 Juin, Lundi

Heure Température Précipitation Vent Pression Humidité
00:00 +20°C° 0 mm 4 m/s 743 mmHg 87%
01:00 +20°C° 0 mm 4 m/s 743 mmHg 91%
02:00 +19°C° 0 mm 4 m/s 743 mmHg 92%
03:00 +19°C° 0 mm 4 m/s 743 mmHg 93%
04:00 +19°C° 0 mm 3 m/s 743 mmHg 94%
05:00 +20°C° 0 mm 4 m/s 743 mmHg 87%
06:00 +22°C° 0 mm 5 m/s 743 mmHg 80%
07:00 +23°C° 0 mm 6 m/s 742 mmHg 72%
08:00 +26°C° 0 mm 6 m/s 742 mmHg 66%
09:00 +27°C° 0 mm 6 m/s 742 mmHg 60%
10:00 +28°C° 0 mm 6 m/s 742 mmHg 53%
11:00 +29°C° 0 mm 5 m/s 742 mmHg 51%
12:00 +30°C° 0 mm 5 m/s 742 mmHg 48%
13:00 +30°C° 0 mm 5 m/s 742 mmHg 46%
14:00 +30°C° 0 mm 5 m/s 742 mmHg 48%
15:00 +30°C° 0 mm 5 m/s 742 mmHg 50%
16:00 +30°C° 0 mm 5 m/s 741 mmHg 52%
17:00 +28°C° 0 mm 5 m/s 741 mmHg 59%
18:00 +27°C° 0 mm 4 m/s 741 mmHg 65%
19:00 +26°C° 0 mm 4 m/s 741 mmHg 72%
20:00 +23°C° 0 mm 4 m/s 741 mmHg 76%
21:00 +22°C° 0 mm 3 m/s 741 mmHg 79%
22:00 +21°C° 0 mm 3 m/s 741 mmHg 83%
23:00 +21°C° 0 mm 3 m/s 741 mmHg 86%

22 Juin, Mardi

Heure Température Précipitation Vent Pression Humidité
00:00 +20°C° 0 mm 3 m/s 740 mmHg 89%
01:00 +19°C° 0 mm 3 m/s 740 mmHg 91%
02:00 +19°C° 0 mm 3 m/s 740 mmHg 92%
03:00 +19°C° 0 mm 3 m/s 740 mmHg 93%
04:00 +19°C° 0 mm 3 m/s 740 mmHg 93%
05:00 +21°C° 0 mm 3 m/s 740 mmHg 87%
06:00 +22°C° 0 mm 4 m/s 740 mmHg 80%
07:00 +25°C° 0 mm 4 m/s 740 mmHg 73%
08:00 +27°C° 0 mm 4 m/s 740 mmHg 68%
09:00 +28°C° 0 mm 3 m/s 740 mmHg 62%
10:00 +30°C° 0 mm 3 m/s 740 mmHg 56%
11:00 +30°C° 0.2 mm 3 m/s 740 mmHg 55%
12:00 +31°C° 0.2 mm 3 m/s 741 mmHg 53%
13:00 +32°C° 0.2 mm 4 m/s 741 mmHg 51%
14:00 +30°C° 1.8 mm 4 m/s 741 mmHg 61%
15:00 +28°C° 1.8 mm 5 m/s 741 mmHg 70%
16:00 +26°C° 1.8 mm 5 m/s 742 mmHg 80%
17:00 +25°C° 1.2 mm 4 m/s 742 mmHg 81%
18:00 +24°C° 1.2 mm 3 m/s 742 mmHg 83%
19:00 +24°C° 1.2 mm 2 m/s 742 mmHg 84%
20:00 +23°C° 0 mm 2 m/s 743 mmHg 85%
21:00 +21°C° 0 mm 2 m/s 743 mmHg 86%
22:00 +20°C° 0 mm 3 m/s 743 mmHg 87%
23:00 +20°C° 0 mm 3 m/s 744 mmHg 89%
Voir plus

Nous avons besoin de votre consentement

Meteoprog et ses fournisseurs de services peuvent stocker et accéder à des données personnelles telles que des cookies, des identifiants d'appareils ou d'autres technologies similaires sur votre appareil et traiter ces données pour personnaliser le contenu et les publicités, ainsi que pour fournir des fonctionnalités de médias sociaux et analyser le trafic.

  • Stocker et/ou accéder à des informations sur votre appareil

    Des cookies, des identifiants d'appareils ou d'autres informations peuvent être stockés ou accessibles sur votre appareil aux fins indiquées ci-dessus.

  • Annonces et contenus personnalisés, mesure des annonces et des contenus, connaissance de l'audience et développement de produits

    Les annonces et le contenu peuvent être personnalisés en fonction d'un profil. D'autres données peuvent être ajoutées pour mieux personnaliser les annonces et le contenu. Les performances des publicités et du contenu peuvent être mesurées. Il est possible d'obtenir des informations sur le public qui a vu les publicités et le contenu. Ces données peuvent être utilisées pour développer ou améliorer l'expérience de l'utilisateur, les systèmes et les logiciels.

En cliquant sur "J'accepte", vous autorisez l'utilisation de cookies, des identifiants d'appareils, des balises web ou d'autres technologies similaires. Vos paramètres peuvent être modifiés dans le navigateur de votre appareil.

Dans certains cas, des intérêts légitimes peuvent être invoqués plutôt qu'un consentement. Vous pouvez en savoir plus à ce sujet dans notre Politique de confidentialité et de cookies.